When you browse on this site, cookies collect data to enhance your experience and personalize the content and advertising you see.
Visit our Privacy Policy to learn more. By continuing to use the site, you agree to this use of cookies and data.
  • en France
  • Liste des pays
  • À 7 jours
  • Température de l'eau
  • Carte satellitaire
  • Carte météo
  • Widgets météo
  • user-avatar
    Se connecter

    Météo par heure à Kurcevo

    Ce jour, 18 Février, Lundi

    Heure Température Précipitation Vent Pression Humidité
    00:00 -4°C° 0 mm 3 m/s 759 mmHg 88%
    01:00 -4°C° 0 mm 3 m/s 759 mmHg 89%
    02:00 -5°C° 0 mm 2 m/s 759 mmHg 92%
    03:00 -5°C° 0 mm 2 m/s 760 mmHg 92%
    04:00 -6°C° 0 mm 2 m/s 760 mmHg 92%
    05:00 -4°C° 0 mm 1 m/s 761 mmHg 92%
    06:00 -4°C° 0 mm 1 m/s 761 mmHg 92%
    07:00 -4°C° 0 mm 1 m/s 761 mmHg 91%
    08:00 -4°C° 0 mm 1 m/s 762 mmHg 90%
    09:00 -3°C° 0 mm 1 m/s 762 mmHg 86%
    10:00 -2°C° 0 mm 1 m/s 762 mmHg 81%
    11:00 0°C° 0 mm 1 m/s 762 mmHg 76%
    12:00 0°C° 0 mm 1 m/s 762 mmHg 76%
    13:00 +1°C° 0 mm 1 m/s 761 mmHg 76%
    14:00 -1°C° 0 mm 2 m/s 761 mmHg 76%
    15:00 -1°C° 0 mm 2 m/s 761 mmHg 77%
    16:00 -2°C° 0 mm 2 m/s 760 mmHg 78%
    17:00 -2°C° 0 mm 2 m/s 760 mmHg 80%
    18:00 -4°C° 0 mm 3 m/s 760 mmHg 80%
    19:00 -4°C° 0 mm 3 m/s 759 mmHg 80%
    20:00 -4°C° 0 mm 4 m/s 759 mmHg 81%
    21:00 -4°C° 0 mm 4 m/s 758 mmHg 82%
    22:00 -3°C° 0 mm 4 m/s 758 mmHg 83%
    23:00 -3°C° 0 mm 4 m/s 758 mmHg 84%

    Demain, 19 Février, Mardi

    Heure Température Précipitation Vent Pression Humidité
    00:00 -4°C° 0 mm 5 m/s 757 mmHg 86%
    01:00 -2°C° 0 mm 5 m/s 757 mmHg 88%
    02:00 -2°C° 0 mm 5 m/s 756 mmHg 90%
    03:00 -1°C° 0 mm 5 m/s 756 mmHg 90%
    04:00 -1°C° 0 mm 5 m/s 755 mmHg 90%
    05:00 -1°C° 0 mm 5 m/s 755 mmHg 89%
    06:00 -1°C° 0 mm 5 m/s 754 mmHg 90%
    07:00 -1°C° 0 mm 5 m/s 754 mmHg 90%
    08:00 -1°C° 0 mm 5 m/s 753 mmHg 91%
    09:00 0°C° 0 mm 5 m/s 753 mmHg 91%
    10:00 0°C° 0 mm 5 m/s 752 mmHg 92%
    11:00 0°C° 0 mm 5 m/s 752 mmHg 93%
    12:00 0°C° 0 mm 5 m/s 751 mmHg 92%
    13:00 +1°C° 0 mm 5 m/s 750 mmHg 91%
    14:00 +1°C° 0 mm 5 m/s 750 mmHg 91%
    15:00 +1°C° 0 mm 5 m/s 749 mmHg 90%
    16:00 +1°C° 0 mm 5 m/s 748 mmHg 90%
    17:00 +1°C° 0 mm 4 m/s 747 mmHg 90%
    18:00 0°C° 0 mm 5 m/s 747 mmHg 90%
    19:00 0°C° 0 mm 5 m/s 746 mmHg 90%
    20:00 0°C° 0 mm 5 m/s 745 mmHg 90%
    21:00 0°C° 0 mm 5 m/s 745 mmHg 89%
    22:00 0°C° 0 mm 5 m/s 744 mmHg 89%
    23:00 0°C° 0 mm 5 m/s 744 mmHg 89%

    Après-demain, 20 Février, Mercredi

    Heure Température Précipitation Vent Pression Humidité
    00:00 +1°C° 0.2 mm 5 m/s 744 mmHg 89%
    01:00 +1°C° 0.2 mm 5 m/s 743 mmHg 90%
    02:00 +1°C° 0.2 mm 5 m/s 743 mmHg 90%
    03:00 +1°C° 0 mm 5 m/s 743 mmHg 90%
    04:00 +1°C° 0 mm 5 m/s 743 mmHg 90%
    05:00 +1°C° 0 mm 5 m/s 743 mmHg 90%
    06:00 +1°C° 0.1 mm 5 m/s 743 mmHg 89%
    07:00 0°C° 0.1 mm 5 m/s 743 mmHg 88%
    08:00 0°C° 0.1 mm 5 m/s 743 mmHg 88%
    09:00 +1°C° 0 mm 5 m/s 743 mmHg 86%
    10:00 +1°C° 0 mm 5 m/s 743 mmHg 84%
    11:00 +1°C° 0 mm 5 m/s 743 mmHg 82%
    12:00 +1°C° 0 mm 6 m/s 744 mmHg 81%
    13:00 +1°C° 0 mm 6 m/s 744 mmHg 80%
    14:00 +1°C° 0 mm 6 m/s 744 mmHg 79%
    15:00 +1°C° 0 mm 6 m/s 744 mmHg 80%
    16:00 +1°C° 0 mm 6 m/s 744 mmHg 81%
    17:00 +1°C° 0 mm 6 m/s 744 mmHg 82%
    18:00 -2°C° 0.1 mm 6 m/s 744 mmHg 78%
    19:00 -3°C° 0.1 mm 7 m/s 745 mmHg 73%
    20:00 -4°C° 0.1 mm 7 m/s 745 mmHg 69%
    21:00 -4°C° 0 mm 7 m/s 746 mmHg 70%
    22:00 -4°C° 0 mm 6 m/s 747 mmHg 72%
    23:00 -5°C° 0 mm 6 m/s 748 mmHg 73%

    21 Février, Jeudi

    Heure Température Précipitation Vent Pression Humidité
    00:00 -5°C° 0 mm 6 m/s 748 mmHg 71%
    01:00 -6°C° 0 mm 7 m/s 749 mmHg 69%
    02:00 -7°C° 0 mm 7 m/s 749 mmHg 67%
    03:00 -7°C° 0 mm 7 m/s 750 mmHg 66%
    04:00 -8°C° 0 mm 7 m/s 750 mmHg 65%
    05:00 -8°C° 0 mm 7 m/s 751 mmHg 64%
    06:00 -8°C° 0 mm 7 m/s 751 mmHg 63%
    07:00 -9°C° 0 mm 7 m/s 752 mmHg 62%
    08:00 -9°C° 0 mm 7 m/s 753 mmHg 61%
    09:00 -8°C° 0 mm 7 m/s 753 mmHg 60%
    10:00 -8°C° 0 mm 7 m/s 754 mmHg 59%
    11:00 -8°C° 0 mm 7 m/s 755 mmHg 58%
    12:00 -8°C° 0 mm 7 m/s 755 mmHg 57%
    13:00 -8°C° 0 mm 7 m/s 756 mmHg 57%
    14:00 -8°C° 0 mm 7 m/s 757 mmHg 57%
    15:00 -8°C° 0 mm 6 m/s 757 mmHg 59%
    16:00 -8°C° 0 mm 6 m/s 758 mmHg 60%
    17:00 -9°C° 0 mm 6 m/s 759 mmHg 62%
    18:00 -8°C° 0 mm 5 m/s 760 mmHg 64%
    19:00 -10°C° 0 mm 5 m/s 761 mmHg 65%
    20:00 -10°C° 0 mm 5 m/s 762 mmHg 66%
    21:00 -10°C° 0 mm 5 m/s 762 mmHg 67%
    22:00 -10°C° 0 mm 5 m/s 763 mmHg 67%
    23:00 -10°C° 0 mm 4 m/s 764 mmHg 67%

    22 Février, Vendredi

    Heure Température Précipitation Vent Pression Humidité
    00:00 -10°C° 0 mm 4 m/s 765 mmHg 68%
    01:00 -10°C° 0 mm 4 m/s 765 mmHg 69%
    02:00 -9°C° 0 mm 3 m/s 766 mmHg 69%
    03:00 -9°C° 0 mm 3 m/s 767 mmHg 70%
    04:00 -9°C° 0 mm 3 m/s 767 mmHg 70%
    05:00 -9°C° 0 mm 3 m/s 768 mmHg 70%
    06:00 -9°C° 0 mm 3 m/s 768 mmHg 71%
    07:00 -9°C° 0 mm 3 m/s 769 mmHg 73%
    08:00 -9°C° 0 mm 3 m/s 770 mmHg 74%
    09:00 -9°C° 0 mm 3 m/s 770 mmHg 69%
    10:00 -8°C° 0 mm 3 m/s 771 mmHg 65%
    11:00 -7°C° 0 mm 3 m/s 772 mmHg 60%
    12:00 -6°C° 0 mm 3 m/s 772 mmHg 56%
    13:00 -4°C° 0 mm 2 m/s 772 mmHg 53%
    14:00 -4°C° 0 mm 2 m/s 772 mmHg 49%
    15:00 -4°C° 0 mm 2 m/s 772 mmHg 52%
    16:00 -4°C° 0 mm 2 m/s 772 mmHg 55%
    17:00 -2°C° 0 mm 1 m/s 773 mmHg 57%
    18:00 -5°C° 0 mm 2 m/s 772 mmHg 59%
    19:00 -5°C° 0 mm 2 m/s 772 mmHg 61%
    20:00 -5°C° 0 mm 2 m/s 772 mmHg 63%
    21:00 -6°C° 0 mm 3 m/s 772 mmHg 60%
    22:00 -6°C° 0 mm 3 m/s 772 mmHg 57%
    23:00 -7°C° 0 mm 4 m/s 771 mmHg 54%

    23 Février, Samedi

    Heure Température Précipitation Vent Pression Humidité
    00:00 -5°C° 0 mm 4 m/s 771 mmHg 54%
    01:00 -5°C° 0 mm 4 m/s 770 mmHg 53%
    02:00 -5°C° 0 mm 4 m/s 769 mmHg 53%
    03:00 -6°C° 0.2 mm 5 m/s 768 mmHg 62%
    04:00 -6°C° 0.2 mm 5 m/s 767 mmHg 71%
    05:00 -6°C° 0.2 mm 5 m/s 766 mmHg 80%
    06:00 -6°C° 1.2 mm 5 m/s 765 mmHg 85%
    07:00 -6°C° 1.2 mm 5 m/s 764 mmHg 90%
    08:00 -6°C° 1.2 mm 5 m/s 763 mmHg 94%
    09:00 -5°C° 0.3 mm 5 m/s 762 mmHg 92%
    10:00 -4°C° 0.3 mm 5 m/s 762 mmHg 90%
    11:00 -2°C° 0.3 mm 6 m/s 761 mmHg 88%
    12:00 -1°C° 0 mm 5 m/s 760 mmHg 90%
    13:00 0°C° 0 mm 4 m/s 760 mmHg 92%
    14:00 +1°C° 0 mm 4 m/s 759 mmHg 94%
    15:00 +2°C° 0 mm 3 m/s 759 mmHg 94%
    16:00 +2°C° 0 mm 3 m/s 759 mmHg 94%
    17:00 +2°C° 0 mm 3 m/s 759 mmHg 94%
    18:00 +2°C° 0 mm 3 m/s 759 mmHg 94%
    19:00 +1°C° 0 mm 3 m/s 759 mmHg 94%
    20:00 +1°C° 0 mm 3 m/s 760 mmHg 94%
    21:00 +1°C° 0 mm 3 m/s 760 mmHg 94%
    22:00 0°C° 0 mm 3 m/s 760 mmHg 95%
    23:00 0°C° 0 mm 3 m/s 760 mmHg 95%
    Voir plus